Location: Springfield
(37.2150°N, 93.2980°W)
Time: 01:11:30
(UTC-05:00)

Cosmos 962 Rocket - Pass Details

Date: 19 April 2018
Orbit: 952 x 999 km, 82.9° (Epoch: 21 May)

Event Time Altitude Azimuth Distance (km) Brightness Sun altitude
Rises 21:07:52 0° 181° (S) 3,608 7.2 -14.9°
Reaches altitude 10° 21:10:20 10° 179° (S) 2,667 6.5 -15.3°
Maximum altitude 21:16:25 78° 95° (E) 977 4.4 -16.4°
Drops below altitude 10° 21:22:35 10° 10° (N) 2,699 7.1 -17.5°
Sets 21:25:06 0° 9° (N) 3,654 7.8 -17.9°
